EW6417 Weather Reports


time (UTC)temp
C
wind
direction
speed
KPH
gust
KPH
rain 1hr
cm
rain 24hr
cm
rain mn
cm
humidity
%
barometer
mb
20260507070558 8 11 0.0 0.0 0.00 0.00 0.00 78 1018.5
20260507070507 8 11 0.0 0.0 0.00 0.00 0.00 79 1018.5
20260507070043 8 11 0.0 0.0 0.00 0.00 0.00 78 1018.7
20260507065515 8 11 0.0 0.0 0.00 0.00 0.00 77 1018.6
20260507065048 8 11 0.0 0.0 0.00 0.00 0.00 77 1018.6
20260507064522 8 11 0.0 0.0 0.00 0.00 0.00 76 1018.7
20260507064050 8 11 0.0 0.0 0.00 0.00 0.00 75 1018.7
20260507063529 9 11 0.0 0.0 0.00 0.00 0.00 74 1018.7
20260507063047 9 11 0.0 0.0 0.00 0.00 0.00 73 1018.6
20260507062530 10 11 0.0 0.0 0.00 0.00 0.00 73 1018.7
20260507062100 10 11 0.0 0.0 0.00 0.00 0.00 72 1018.7
20260507062002 10 11 0.0 0.0 0.00 0.00 0.00 72 1018.7
20260507061540 10 11 0.0 0.0 0.00 0.00 0.00 71 1018.5
20260507061019 10 11 0.0 0.0 0.00 0.00 0.00 70 1018.3
20260507060549 10 11 0.0 0.0 0.00 0.00 0.00 70 1018.3
20260507060022 10 11 0.0 0.0 0.00 0.00 0.00 71 1018.4
20260507055555 10 11 0.0 0.0 0.00 0.00 0.00 70 1018.4
20260507055036 10 11 0.0 0.0 0.00 0.00 0.00 70 1018.5
20260507054511 10 11 0.0 0.0 0.00 0.00 0.00 68 1018.4
20260507054040 10 11 0.0 1.6 0.00 0.00 0.00 68 1018.4
20260507053520 11 11 0.0 3.2 0.00 0.00 0.00 67 1018.5
20260507053110 11 11 0.0 6.4 0.00 0.00 0.00 66 1018.3
20260507052510 11 11 0.0 6.4 0.00 0.00 0.00 65 1018.4
20260507052042 11 12 0.0 3.2 0.00 0.00 0.00 65 1018.4
20260507051606 11 12 0.0 1.6 0.00 0.00 0.00 65 1018.3
20260507051502 11 12 0.0 1.6 0.00 0.00 0.00 65 1018.3
20260507051025 11 12 0.0 1.6 0.00 0.00 0.00 65 1018.3
20260507050559 11 12 0.0 1.6 0.00 0.00 0.00 64 1018.4
20260507050501 11 12 0.0 1.6 0.00 0.00 0.00 64 1018.4
20260507050038 11 12 0.0 3.2 0.00 0.00 0.00 64 1018.3
20260507045512 11 12 0.0 3.2 0.00 0.00 0.00 64 1018.2
20260507045042 11 12 0.0 3.2 0.00 0.00 0.00 65 1018.2
20260507044527 11 12 1.6 3.2 0.00 0.00 0.00 65 1018.3
20260507044056 10 12 1.6 6.4 0.00 0.00 0.00 66 1018.3
20260507043536 11 12 0.0 8.0 0.00 0.00 0.00 66 1018.3
20260507043056 11 12 1.6 8.0 0.00 0.00 0.00 65 1018.3
20260507042524 11 16 0.0 0.0 0.00 0.00 0.00 62 1018.3
20260507042056 11 16 0.0 0.0 0.00 0.00 0.00 60 1018.3
20260507041532 11 16 0.0 0.0 0.00 0.00 0.00 60 1018.3
20260507041103 11 16 0.0 0.0 0.00 0.00 0.00 60 1018.3
20260507041006 11 16 0.0 0.0 0.00 0.00 0.00 60 1018.3
20260507040538 11 16 0.0 6.4 0.00 0.00 0.00 59 1018.3
20260507040014 11 16 0.0 6.4 0.00 0.00 0.00 60 1018.4
20260507035552 12 16 0.0 3.2 0.00 0.00 0.00 60 1018.3
20260507035012 12 16 0.0 0.0 0.00 0.00 0.00 60 1018.2
20260507034538 12 16 0.0 3.2 0.00 0.00 0.00 60 1018.2
20260507034012 12 16 0.0 3.2 0.00 0.00 0.00 59 1018.1
20260507033547 12 16 0.0 6.4 0.00 0.00 0.00 59 1017.9
20260507033015 12 16 0.0 6.4 0.00 0.00 0.00 59 1017.9
20260507032533 12 16 0.0 3.2 0.00 0.00 0.00 58 1017.8
20260507032052 12 16 0.0 3.2 0.00 0.00 0.00 58 1017.6
20260507031534 12 16 0.0 3.2 0.00 0.00 0.00 58 1017.7
20260507031048 12 16 0.0 3.2 0.00 0.00 0.00 58 1017.8
20260507030508 12 16 1.6 3.2 0.00 0.00 0.00 58 1017.7
20260507030029 12 16 1.6 4.8 0.00 0.00 0.00 58 1017.7
20260507025505 12 16 1.6 4.8 0.00 0.00 0.00 58 1017.7
20260507025028 12 16 0.0 3.2 0.00 0.00 0.00 58 1017.6
20260507024603 13 16 0.0 3.2 0.00 0.00 0.00 58 1017.6
20260507024035 13 16 0.0 6.4 0.00 0.00 0.00 58 1017.6
20260507023514 13 16 1.6 4.8 0.00 0.00 0.00 58 1017.6
20260507023036 13 16 1.6 6.4 0.00 0.00 0.00 58 1017.6
20260507022554 13 16 1.6 8.0 0.00 0.00 0.00 58 1017.5
20260507022028 13 16 1.6 8.0 0.00 0.00 0.00 58 1017.5
20260507021510 13 16 3.2 8.0 0.00 0.00 0.00 57 1017.5
20260507021033 13 18 3.2 4.8 0.00 0.00 0.00 57 1017.4
20260507020553 13 18 3.2 4.8 0.00 0.00 0.00 57 1017.3
20260507020026 13 18 1.6 8.0 0.00 0.00 0.00 57 1017.3
20260507015553 13 18 1.6 8.0 0.00 0.00 0.00 56 1017.3
20260507015036 13 19 1.6 8.0 0.00 0.00 0.00 56 1017.1
20260507014607 13 19 3.2 9.7 0.00 0.00 0.00 55 1017.1
20260507014022 13 24 3.2 9.7 0.00 0.00 0.00 54 1017.0
20260507013558 14 30 3.2 9.7 0.00 0.00 0.00 54 1016.9
20260507013032 14 35 1.6 8.0 0.00 0.00 0.00 52 1016.9
20260507012509 14 32 1.6 4.8 0.00 0.00 0.00 52 1016.8
20260507012044 15 32 1.6 6.4 0.00 0.00 0.00 52 1016.8
20260507011528 15 32 0.0 1.6 0.00 0.00 0.00 52 1016.8
20260507011047 15 32 0.0 1.6 0.00 0.00 0.00 52 1016.7
20260507010506 15 32 0.0 1.6 0.00 0.00 0.00 51 1016.6
20260507010028 15 32 0.0 8.0 0.00 0.00 0.00 51 1016.6
20260507005505 15 32 0.0 9.7 0.00 0.00 0.00 50 1016.5
20260507005045 16 38 0.0 8.0 0.00 0.00 0.00 50 1016.5
20260507004535 16 8 0.0 8.0 0.00 0.00 0.00 49 1016.5
20260507004056 16 8 1.6 8.0 0.00 0.00 0.00 49 1016.4
20260507003535 16 26 0.0 4.8 0.00 0.00 0.00 48 1016.4
20260507003014 16 26 1.6 6.4 0.00 0.00 0.00 48 1016.3
20260507002547 16 26 1.6 9.7 0.00 0.00 0.00 48 1016.3
20260507002030 16 27 1.6 9.7 0.00 0.00 0.00 48 1016.1
20260507001604 16 22 0.0 9.7 0.00 0.00 0.00 49 1016.1
20260507001508 17 23 0.0 9.7 0.00 0.00 0.00 48 1016.2
20260507001039 17 23 3.2 9.7 0.00 0.00 0.00 46 1016.2
20260507000520 17 53 1.6 12.9 0.00 0.00 0.00 46 1016.1
20260507000043 17 85 3.2 12.9 0.00 0.00 0.00 46 1016.1
20260506235508 17 85 6.4 12.9 0.00 0.00 0.00 45 1016.2
20260506235037 17 63 3.2 11.3 0.00 0.00 0.00 45 1016.2
20260506234517 17 346 1.6 11.3 0.00 0.00 0.00 45 1016.1
20260506234058 17 35 1.6 8.0 0.00 0.00 0.00 45 1016.1
20260506233516 17 31 3.2 8.0 0.00 0.00 0.00 45 1016.0
20260506233037 17 29 3.2 16.1 0.00 0.00 0.00 44 1016.1
20260506232557 17 44 3.2 16.1 0.00 0.00 0.00 44 1016.0
20260506232505 17 39 3.2 16.1 0.00 0.00 0.00 45 1016.0
20260506232033 17 36 4.8 12.9 0.00 0.00 0.00 45 1015.8
20260506231512 17 35 3.2 17.7 0.00 0.00 0.00 45 1015.8
20260506231052 17 21 4.8 17.7 0.00 0.00 0.00 44 1015.7
20260506230511 17 60 4.8 19.3 0.00 0.00 0.00 46 1015.6
20260506230043 17 39 1.6 12.9 0.00 0.00 0.00 46 1015.5
20260506225526 17 14 1.6 9.7 0.00 0.00 0.00 46 1015.6
20260506225008 17 15 4.8 11.3 0.00 0.00 0.00 46 1015.5
20260506224533 17 331 4.8 11.3 0.00 0.00 0.00 47 1015.5
20260506224045 17 32 3.2 11.3 0.00 0.00 0.00 46 1015.5
20260506223512 17 340 4.8 9.7 0.00 0.00 0.00 46 1015.4
20260506223040 17 7 1.6 11.3 0.00 0.00 0.00 47 1015.4
20260506222521 17 38 1.6 22.5 0.00 0.00 0.00 46 1015.3
20260506222059 17 58 6.4 22.5 0.00 0.00 0.00 46 1015.3
20260506221518 17 35 3.2 17.7 0.00 0.00 0.00 48 1015.3
20260506221041 17 36 3.2 8.0 0.00 0.00 0.00 47 1015.2
20260506220517 17 19 3.2 19.3 0.00 0.00 0.00 45 1015.2
20260506220056 17 52 4.8 19.3 0.00 0.00 0.00 46 1015.3
20260506215517 17 23 4.8 14.5 0.00 0.00 0.00 47 1015.3
20260506215053 17 12 4.8 19.3 0.00 0.00 0.00 48 1015.2
20260506214509 17 4 9.7 19.3 0.00 0.00 0.00 46 1015.3
20260506214033 17 350 8.0 16.1 0.00 0.00 0.00 47 1015.3
20260506213512 17 331 6.4 20.9 0.00 0.00 0.00 46 1015.2
20260506213045 17 35 4.8 20.9 0.00 0.00 0.00 47 1015.2
20260506212559 17 350 6.4 16.1 0.00 0.00 0.00 48 1015.2
20260506212503 17 332 8.0 16.1 0.00 0.00 0.00 47 1015.2
20260506212040 17 344 3.2 9.7 0.00 0.00 0.00 51 1015.3
20260506211606 17 28 3.2 9.7 0.00 0.00 0.00 48 1015.4
20260506211502 17 35 3.2 9.7 0.00 0.00 0.00 48 1015.5
20260506211017 17 45 4.8 11.3 0.00 0.00 0.00 48 1015.5
20260506210540 17 69 1.6 14.5 0.00 0.00 0.00 50 1015.5
20260506210016 17 41 4.8 12.9 0.00 0.00 0.00 48 1015.6
20260506205534 17 36 4.8 12.9 0.00 0.00 0.00 50 1015.6
20260506205013 17 35 4.8 14.5 0.00 0.00 0.00 48 1015.8
20260506204550 17 350 3.2 14.5 0.00 0.00 0.00 49 1015.8
20260506204029 17 63 3.2 12.9 0.00 0.00 0.00 49 1015.9
20260506203548 17 58 4.8 17.7 0.00 0.00 0.00 48 1015.9
20260506203015 17 78 3.2 17.7 0.00 0.00 0.00 50 1016.0
20260506202541 16 15 4.8 11.3 0.00 0.00 0.00 48 1016.0
20260506202007 16 21 4.8 12.9 0.00 0.00 0.00 48 1016.1
20260506201529 17 339 4.8 12.9 0.00 0.00 0.00 48 1016.0
20260506201044 17 13 4.8 12.9 0.00 0.00 0.00 49 1016.1
20260506200521 17 56 4.8 14.5 0.00 0.00 0.00 48 1016.1
20260506200048 17 31 3.2 16.1 0.00 0.00 0.00 52 1016.1
20260506195519 16 57 4.8 16.1 0.00 0.00 0.00 52 1016.3
20260506195055 16 10 3.2 12.9 0.00 0.00 0.00 51 1016.2
20260506194528 16 340 8.0 16.1 0.00 0.00 0.00 49 1016.3
20260506194101 16 33 4.8 16.1 0.00 0.00 0.00 51 1016.3
20260506194005 16 28 4.8 16.1 0.00 0.00 0.00 52 1016.3
20260506193547 16 36 3.2 14.5 0.00 0.00 0.00 52 1016.3
20260506193009 16 133 6.4 14.5 0.00 0.00 0.00 53 1016.5
20260506192543 16 22 3.2 9.7 0.00 0.00 0.00 52 1016.6
20260506192054 16 355 6.4 9.7 0.00 0.00 0.00 51 1016.7
20260506191537 16 47 1.6 9.7 0.00 0.00 0.00 53 1016.8
20260506191101 16 350 3.2 11.3 0.00 0.00 0.00 52 1016.7
20260506190533 16 53 6.4 12.9 0.00 0.00 0.00 50 1016.7
20260506190021 16 56 4.8 12.9 0.00 0.00 0.00 51 1016.8
20260506185549 16 10 6.4 14.5 0.00 0.00 0.00 51 1016.7
20260506185028 16 97 6.4 17.7 0.00 0.00 0.00 51 1016.8
20260506184553 16 16 6.4 17.7 0.00 0.00 0.00 52 1016.8
20260506184031 16 74 4.8 12.9 0.00 0.00 0.00 53 1016.9
20260506183514 16 355 1.6 11.3 0.00 0.00 0.00 54 1017.2
20260506183053 16 19 3.2 14.5 0.00 0.00 0.00 54 1017.2
20260506182527 16 7 1.6 16.1 0.00 0.00 0.00 54 1017.3
20260506182059 16 33 6.4 14.5 0.00 0.00 0.00 52 1017.3
20260506182002 16 143 4.8 14.5 0.00 0.00 0.00 54 1017.4
20260506181544 16 25 6.4 14.5 0.00 0.00 0.00 53 1017.3
20260506181019 16 18 6.4 14.5 0.00 0.00 0.00 54 1017.2
20260506180553 16 93 4.8 17.7 0.00 0.00 0.00 53 1017.2
20260506180031 16 71 6.4 17.7 0.00 0.00 0.00 55 1017.4
20260506175515 16 96 4.8 19.3 0.00 0.00 0.00 54 1017.4
20260506175043 16 17 6.4 19.3 0.00 0.00 0.00 56 1017.4
20260506174519 16 44 1.6 16.1 0.00 0.00 0.00 57 1017.4
20260506174048 15 32 6.4 16.1 0.00 0.00 0.00 55 1017.6
20260506173528 15 33 6.4 17.7 0.00 0.00 0.00 56 1017.9
20260506173133 15 355 6.4 17.7 0.00 0.00 0.00 56 1018.2
20260506172533 15 104 4.8 16.1 0.00 0.00 0.00 58 1018.4
20260506172009 15 63 6.4 14.5 0.00 0.00 0.00 58 1018.5
20260506171537 15 34 3.2 14.5 0.00 0.00 0.00 58 1018.7
20260506171015 15 360 1.6 17.7 0.00 0.00 0.00 59 1018.7
20260506170550 15 27 6.4 17.7 0.00 0.00 0.00 58 1018.7
20260506170024 14 12 3.2 12.9 0.00 0.00 0.00 58 1018.7
20260506165557 14 94 4.8 12.9 0.00 0.00 0.00 61 1018.6
20260506165017 13 68 4.8 12.9 0.00 0.00 0.00 61 1018.6
20260506164539 13 350 6.4 14.5 0.00 0.00 0.00 60 1018.4
20260506164023 13 6 3.2 14.5 0.00 0.00 0.00 59 1018.4
20260506163555 14 6 4.8 12.9 0.00 0.00 0.00 59 1018.4
20260506163038 14 5 4.8 11.3 0.00 0.00 0.00 59 1018.4
20260506162519 14 38 3.2 12.9 0.00 0.00 0.00 59 1018.5
20260506162050 14 32 4.8 16.1 0.00 0.00 0.00 59 1018.4
20260506161533 14 54 4.8 14.5 0.00 0.00 0.00 59 1018.4
20260506161004 13 85 3.2 11.3 0.00 0.00 0.00 59 1018.3
20260506160545 13 56 3.2 11.3 0.00 0.00 0.00 59 1018.3
20260506160025 13 335 3.2 12.9 0.00 0.00 0.00 60 1018.1
20260506155555 13 20 4.8 12.9 0.00 0.00 0.00 60 1018.1
20260506155032 13 31 1.6 16.1 0.00 0.00 0.00 62 1017.8
20260506154504 13 47 4.8 16.1 0.00 0.00 0.00 61 1017.7
20260506154035 13 61 4.8 16.1 0.00 0.00 0.00 62 1017.4
20260506153518 12 60 8.0 19.3 0.00 0.00 0.00 63 1017.2
20260506153045 12 56 4.8 20.9 0.00 0.00 0.00 65 1017.1
20260506152521 12 114 8.0 20.9 0.00 0.00 0.00 65 1017.1
20260506152049 12 71 8.0 19.3 0.00 0.00 0.00 65 1016.9
20260506151523 12 58 4.8 16.1 0.00 0.00 0.00 66 1016.7
20260506151045 11 29 6.4 12.9 0.00 0.00 0.00 67 1016.8
20260506150509 11 67 4.8 12.9 0.00 0.00 0.00 69 1016.9
20260506150043 11 68 3.2 11.3 0.00 0.00 0.00 69 1017.1
20260506145505 11 63 4.8 17.7 0.00 0.00 0.00 68 1017.2
20260506145027 11 8 8.0 17.7 0.00 0.00 0.00 68 1017.1
20260506144608 11 8 4.8 17.7 0.00 0.00 0.00 69 1017.0
20260506144510 11 40 4.8 17.7 0.00 0.00 0.00 69 1017.0
20260506144041 11 44 4.8 16.1 0.00 0.00 0.00 70 1016.9
20260506143557 11 355 6.4 16.1 0.00 0.00 0.00 70 1016.9
20260506143026 11 46 6.4 17.7 0.00 0.00 0.00 71 1016.8
20260506142558 10 51 8.0 17.7 0.00 0.00 0.00 71 1016.6
20260506142503 10 59 8.0 17.7 0.00 0.00 0.00 71 1016.6
20260506142020 10 50 3.2 14.5 0.00 0.00 0.00 73 1016.7
20260506141551 10 39 1.6 11.3 0.00 0.00 0.00 73 1016.8
20260506141029 10 46 4.8 16.1 0.00 0.00 0.00 72 1016.9
20260506140512 10 73 3.2 11.3 0.00 0.00 0.00 73 1017.1
20260506140031 10 48 3.2 12.9 0.00 0.00 0.00 74 1017.2
20260506135544 10 54 1.6 12.9 0.00 0.00 0.00 74 1017.1
20260506135012 10 41 1.6 11.3 0.00 0.00 0.00 74 1017.0
20260506134542 10 324 1.6 12.9 0.00 0.00 0.00 75 1017.0
20260506134017 10 48 4.8 12.9 0.00 0.00 0.00 74 1016.9
20260506133549 9 37 4.8 19.3 0.00 0.00 0.00 75 1016.8
20260506133027 9 60 4.8 19.3 0.00 0.00 0.00 75 1017.0
20260506132506 9 71 4.8 16.1 0.00 0.00 0.00 76 1017.0
20260506132043 9 18 6.4 14.5 0.00 0.00 0.00 77 1017.1
20260506131525 9 6 6.4 16.1 0.00 0.00 0.00 77 1017.1
20260506131101 9 66 1.6 16.1 0.00 0.00 0.00 79 1016.8
20260506131002 9 67 0.0 16.1 0.00 0.00 0.00 79 1016.9
20260506130535 9 345 1.6 16.1 0.00 0.00 0.00 80 1017.0
20260506130006 8 34 1.6 14.5 0.00 0.00 0.00 80 1017.0
20260506125546 8 46 4.8 14.5 0.00 0.00 0.00 80 1016.9
20260506125020 8 44 4.8 12.9 0.00 0.00 0.00 81 1016.9
20260506124557 8 50 6.4 19.3 0.00 0.00 0.00 81 1016.9
20260506124019 8 21 4.8 19.3 0.00 0.00 0.00 81 1016.9
20260506123553 8 39 4.8 11.3 0.00 0.00 0.00 82 1016.7
20260506123035 8 350 4.8 11.3 0.00 0.00 0.00 81 1016.6
20260506122517 8 19 3.2 11.3 0.00 0.00 0.00 81 1016.4
20260506122057 8 360 4.8 12.9 0.00 0.00 0.00 81 1016.3
20260506121536 8 53 4.8 12.9 0.00 0.00 0.00 82 1016.2
20260506121014 8 56 3.2 19.3 0.00 0.00 0.00 82 1016.0
20260506120553 8 61 4.8 19.3 0.00 0.00 0.00 83 1016.2
20260506120033 8 12 3.2 12.9 0.00 0.00 0.00 83 1016.2
20260506115032 8 360 6.4 17.7 0.00 0.00 0.00 83 1016.4
20260506114552 8 335 8.0 17.7 0.00 0.00 0.00 83 1016.3
20260506114014 8 350 8.0 12.9 0.00 0.00 0.00 82 1016.4
20260506113550 8 360 3.2 12.9 0.00 0.00 0.00 82 1016.5
20260506113033 8 341 4.8 14.5 0.00 0.00 0.00 82 1016.5
20260506112551 8 350 8.0 14.5 0.00 0.00 0.00 82 1016.4
20260506112034 8 341 6.4 11.3 0.00 0.00 0.00 82 1016.5
20260506111559 8 350 4.8 12.9 0.00 0.00 0.00 82 1016.5
20260506111020 8 360 4.8 14.5 0.00 0.00 0.00 81 1016.2
20260506110558 8 350 4.8 14.5 0.00 0.00 0.00 81 1016.2
20260506110502 8 350 6.4 14.5 0.00 0.00 0.00 81 1016.1
20260506110023 8 345 3.2 9.7 0.00 0.00 0.00 81 1016.0
20260506105558 8 21 3.2 9.7 0.00 0.00 0.00 81 1015.9
20260506105021 8 5 3.2 12.9 0.00 0.00 0.00 81 1015.7
20260506104537 8 343 3.2 11.3 0.00 0.00 0.00 81 1015.6
20260506104054 8 360 3.2 9.7 0.00 0.00 0.00 81 1015.6
20260506103536 8 360 6.4 11.3 0.00 0.00 0.00 81 1015.6
20260506103056 8 6 8.0 11.3 0.00 0.00 0.00 81 1015.6
20260506102542 8 355 3.2 11.3 0.00 0.00 0.00 81 1015.4
20260506102055 8 360 3.2 12.9 0.00 0.00 0.00 81 1015.4
20260506101518 8 328 3.2 11.3 0.00 0.00 0.00 81 1015.2
20260506101043 8 345 8.0 11.3 0.00 0.00 0.00 81 1015.3
20260506100524 8 350 6.4 12.9 0.00 0.00 0.00 81 1015.3
20260506100043 8 355 6.4 12.9 0.00 0.00 0.00 80 1015.1
20260506095520 8 346 6.4 14.5 0.00 0.00 0.00 80 1015.1
20260506095044 8 43 8.0 14.5 0.00 0.00 0.00 80 1015.0
20260506094613 8 12 3.2 14.5 0.00 0.00 0.00 81 1014.8
20260506094038 8 4 6.4 11.3 0.00 0.00 0.00 81 1014.7
20260506093600 8 350 3.2 20.9 0.00 0.00 0.00 81 1014.6
20260506093043 8 350 4.8 20.9 0.00 0.00 0.00 81 1014.2
20260506092557 8 350 3.2 14.5 0.00 0.00 0.00 82 1014.0
20260506092501 8 355 4.8 14.5 0.00 0.00 0.00 82 1014.0
20260506092040 8 360 6.4 12.9 0.00 0.00 0.00 82 1014.0
20260506091555 8 360 6.4 12.9 0.00 0.00 0.00 82 1013.7
20260506091019 8 7 4.8 12.9 0.00 0.00 0.00 82 1013.6
20260506090553 8 360 4.8 11.3 0.00 0.00 0.00 82 1013.6
20260506090022 8 345 3.2 11.3 0.00 0.00 0.00 82 1013.6
20260506085553 8 355 6.4 11.3 0.00 0.00 0.00 82 1013.5
20260506085010 8 14 4.8 12.9 0.00 0.00 0.00 81 1013.3
20260506084536 8 17 4.8 12.9 0.00 0.00 0.00 80 1013.1
20260506084012 8 350 4.8 12.9 0.00 0.00 0.00 80 1013.1
20260506083534 8 343 6.4 12.9 0.00 0.00 0.00 78 1013.1
20260506083057 8 13 3.2 9.7 0.00 0.00 0.00 78 1013.3
20260506082532 8 47 1.6 12.9 0.00 0.00 0.00 78 1013.2
20260506082050 8 43 1.6 12.9 0.00 0.00 0.00 77 1013.0
20260506081534 8 31 1.6 8.0 0.00 0.00 0.00 77 1012.9
20260506081048 8 33 1.6 9.7 0.00 0.00 0.00 77 1012.8
20260506080508 8 33 1.6 9.7 0.00 0.00 0.00 76 1012.8
20260506073022 9 47 3.2 9.7 0.00 0.00 0.00 76 1012.5
20260506072545 9 25 1.6 8.0 0.00 0.00 0.00 76 1012.5
20260506072014 9 360 3.2 12.9 0.00 0.00 0.00 75 1012.6
20260506071545 9 111 1.6 12.9 0.00 0.00 0.00 75 1012.7
20260506071008 9 15 1.6 8.0 0.00 0.00 0.00 76 1012.9